JBU2120 KSAN-KBOS

Flight info

Callsign JBU2120
Flight time N/A
Altitude 33000
Route ZZOOO4 GBN J18 ABQ KK42Y SLN IRK KG66M ANEWA JHW Q82 PONCT JFUND2
Aircraft A321/M-SDE3FGHIRWY/LB1

Departure

Time N/A
Airport San Diego International Airport (KSAN)

Arrival

Time 2026-05-01 11:34
Airport Boston Logan International Airport (KBOS)
Time Latitude Longitude Altitude Speed Heading
2026-05-01 07:23 33.01183 -112.57037 32881 ft 479 kts 57°
2026-05-01 07:24 33.05805 -112.46493 32817 ft 478 kts 57°
2026-05-01 07:24 33.08895 -112.39470 32837 ft 478 kts 57°
2026-05-01 07:25 33.11978 -112.32452 32829 ft 477 kts 57°
2026-05-01 07:25 33.14529 -112.26620 32826 ft 477 kts 58°
2026-05-01 07:26 33.17589 -112.19600 32825 ft 477 kts 58°
2026-05-01 07:26 33.20649 -112.12573 32867 ft 477 kts 58°
2026-05-01 07:27 33.23692 -112.05560 32851 ft 474 kts 58°
2026-05-01 07:27 33.26725 -111.98562 32886 ft 475 kts 58°
2026-05-01 07:28 33.29755 -111.91549 32907 ft 475 kts 58°
2026-05-01 07:28 33.32782 -111.84526 32909 ft 475 kts 58°
2026-05-01 07:29 33.35814 -111.77504 32922 ft 475 kts 58°
2026-05-01 07:29 33.38846 -111.70480 32916 ft 475 kts 59°
2026-05-01 07:30 33.41864 -111.63452 32911 ft 475 kts 59°
2026-05-01 07:30 33.44871 -111.56413 32886 ft 475 kts 59°
2026-05-01 07:31 33.47877 -111.49371 32834 ft 475 kts 59°
2026-05-01 07:32 33.55371 -111.31808 32848 ft 475 kts 59°
2026-05-01 07:33 33.59859 -111.21210 32860 ft 475 kts 59°
2026-05-01 07:33 33.64347 -111.10605 32900 ft 475 kts 59°
2026-05-01 07:34 33.68819 -111.00007 32869 ft 474 kts 59°
2026-05-01 07:35 33.71791 -110.92934 32864 ft 474 kts 59°
2026-05-01 07:35 33.74761 -110.85854 32855 ft 474 kts 60°
2026-05-01 07:36 33.77731 -110.78772 32865 ft 474 kts 60°
2026-05-01 07:36 33.80689 -110.71696 32869 ft 473 kts 60°
2026-05-01 07:37 33.85108 -110.61092 32868 ft 472 kts 60°
2026-05-01 07:37 33.88051 -110.54029 32865 ft 472 kts 60°
2026-05-01 07:38 33.90992 -110.46958 32881 ft 472 kts 60°
2026-05-01 07:39 33.95373 -110.36352 32881 ft 471 kts 61°
2026-05-01 07:39 33.99741 -110.25779 32893 ft 469 kts 61°
2026-05-01 07:40 34.02618 -110.18784 32941 ft 469 kts 61°
2026-05-01 07:40 34.05507 -110.11736 32998 ft 469 kts 61°
2026-05-01 07:41 34.08397 -110.04695 33029 ft 469 kts 62°
2026-05-01 07:42 34.12735 -109.94081 33040 ft 471 kts 62°
2026-05-01 07:42 34.15627 -109.86989 33024 ft 471 kts 62°
2026-05-01 07:43 34.18521 -109.79883 33005 ft 472 kts 62°
2026-05-01 07:43 34.22859 -109.69202 32941 ft 472 kts 62°
2026-05-01 07:44 34.28621 -109.54949 32942 ft 472 kts 62°
2026-05-01 07:45 34.31496 -109.47813 32955 ft 472 kts 62°
2026-05-01 07:45 34.34372 -109.40674 32966 ft 472 kts 62°
2026-05-01 07:46 34.37248 -109.33528 32941 ft 472 kts 62°
2026-05-01 07:47 34.41539 -109.22786 32885 ft 473 kts 63°
2026-05-01 07:47 34.44402 -109.15608 32834 ft 473 kts 63°
2026-05-01 07:48 34.48688 -109.04848 32884 ft 473 kts 63°
2026-05-01 07:48 34.51538 -108.97669 32838 ft 473 kts 63°
2026-05-01 07:49 34.55801 -108.86890 32813 ft 473 kts 63°
2026-05-01 07:50 34.58651 -108.79701 32810 ft 473 kts 63°
2026-05-01 07:50 34.62907 -108.68895 32810 ft 473 kts 63°
2026-05-01 07:51 34.65735 -108.61682 32807 ft 473 kts 63°
2026-05-01 07:52 34.69975 -108.50844 32807 ft 474 kts 63°
2026-05-01 07:52 34.72804 -108.43615 32808 ft 474 kts 63°
2026-05-01 07:53 34.77021 -108.32815 32809 ft 474 kts 63°
2026-05-01 07:53 34.79837 -108.25573 32809 ft 473 kts 64°
2026-05-01 07:55 34.86838 -108.07454 32822 ft 473 kts 64°
2026-05-01 07:56 34.93851 -107.89279 32827 ft 474 kts 64°
2026-05-01 07:57 34.98038 -107.78341 32833 ft 475 kts 64°
2026-05-01 07:58 35.03603 -107.63726 32858 ft 475 kts 64°
2026-05-01 07:59 35.09142 -107.49172 32868 ft 474 kts 64°
2026-05-01 08:00 35.17430 -107.27222 32866 ft 475 kts 64°
2026-05-01 08:01 35.22963 -107.12507 32889 ft 476 kts 64°
2026-05-01 08:02 35.27104 -107.01449 32918 ft 477 kts 64°
2026-05-01 08:03 35.31236 -106.90358 32915 ft 478 kts 64°
2026-05-01 08:03 35.35377 -106.79212 32897 ft 480 kts 64°
2026-05-01 08:04 35.40899 -106.64290 32930 ft 482 kts 64°
2026-05-01 08:05 35.45038 -106.53051 32921 ft 483 kts 64°
2026-05-01 08:06 35.49177 -106.41784 32981 ft 483 kts 64°
2026-05-01 08:07 35.54682 -106.26723 33090 ft 484 kts 64°
2026-05-01 08:08 35.58808 -106.15408 33133 ft 484 kts 65°
2026-05-01 08:09 35.64292 -106.00287 33137 ft 484 kts 65°
2026-05-01 08:09 35.67017 -105.92750 32926 ft 487 kts 65°
2026-05-01 08:10 35.72522 -105.77456 33003 ft 489 kts 65°
2026-05-01 08:11 35.78009 -105.62129 33044 ft 489 kts 65°
2026-05-01 08:12 35.82127 -105.50605 33044 ft 490 kts 65°
2026-05-01 08:13 35.86234 -105.39055 33067 ft 491 kts 65°
2026-05-01 08:13 35.90327 -105.27487 33106 ft 491 kts 65°
2026-05-01 08:14 35.92592 -105.21055 33111 ft 492 kts 65°
2026-05-01 08:14 35.95321 -105.13310 33106 ft 493 kts 65°
2026-05-01 08:15 35.99415 -105.01660 33120 ft 493 kts 65°
2026-05-01 08:16 36.02132 -104.93881 33123 ft 493 kts 65°
2026-05-01 08:16 36.04854 -104.86090 33119 ft 494 kts 65°
2026-05-01 08:17 36.07581 -104.78271 33125 ft 496 kts 65°
2026-05-01 08:17 36.10305 -104.70426 33114 ft 497 kts 65°
2026-05-01 08:18 36.13032 -104.62547 33117 ft 498 kts 65°
2026-05-01 08:19 36.18487 -104.46763 33145 ft 499 kts 65°
2026-05-01 08:19 36.21203 -104.38851 33145 ft 499 kts 65°
2026-05-01 08:20 36.23912 -104.30932 33147 ft 499 kts 65°
2026-05-01 08:20 36.26624 -104.23004 33141 ft 499 kts 65°
2026-05-01 08:21 36.29312 -104.15126 33154 ft 500 kts 66°
2026-05-01 08:21 36.32013 -104.07192 33157 ft 500 kts 66°
2026-05-01 08:22 36.34711 -103.99234 33170 ft 500 kts 66°
2026-05-01 08:22 36.37403 -103.91271 33175 ft 501 kts 66°
2026-05-01 08:23 36.40090 -103.83305 33158 ft 501 kts 66°
2026-05-01 08:23 36.42781 -103.75331 33158 ft 501 kts 66°
2026-05-01 08:24 36.45464 -103.67351 33177 ft 502 kts 66°
2026-05-01 08:24 36.48156 -103.59338 33160 ft 503 kts 66°
2026-05-01 08:25 36.50845 -103.51304 33166 ft 504 kts 66°
2026-05-01 08:25 36.53527 -103.43238 33176 ft 505 kts 66°
2026-05-01 08:26 36.56206 -103.35143 33186 ft 506 kts 66°
2026-05-01 08:26 36.58880 -103.27043 33160 ft 507 kts 66°
2026-05-01 08:27 36.61568 -103.18931 33159 ft 507 kts 66°
2026-05-01 08:27 36.64251 -103.10813 33171 ft 507 kts 66°
2026-05-01 08:28 36.66922 -103.02675 33150 ft 508 kts 66°
2026-05-01 08:28 36.69590 -102.94513 33153 ft 509 kts 66°
2026-05-01 08:29 36.72256 -102.86345 33152 ft 509 kts 66°
2026-05-01 08:29 36.74903 -102.78224 33156 ft 509 kts 66°
2026-05-01 08:30 36.77563 -102.70034 33147 ft 510 kts 66°
2026-05-01 08:30 36.80226 -102.61822 33175 ft 511 kts 66°
2026-05-01 08:31 36.82894 -102.53580 33139 ft 513 kts 66°
2026-05-01 08:31 36.85563 -102.45304 33134 ft 515 kts 67°
2026-05-01 08:32 36.88225 -102.36994 33144 ft 516 kts 67°
2026-05-01 08:32 36.90889 -102.28666 33146 ft 516 kts 67°
2026-05-01 08:33 36.93558 -102.20322 33151 ft 517 kts 67°
2026-05-01 08:33 36.96213 -102.11971 33207 ft 517 kts 67°
2026-05-01 08:34 36.98868 -102.03609 33244 ft 517 kts 67°
2026-05-01 08:34 37.02073 -101.95599 33241 ft 515 kts 57°
2026-05-01 08:35 37.05708 -101.87874 33245 ft 515 kts 57°
2026-05-01 08:35 37.09315 -101.80177 33236 ft 516 kts 57°
2026-05-01 08:36 37.12930 -101.72411 33221 ft 516 kts 57°
2026-05-01 08:36 37.16565 -101.64580 33197 ft 518 kts 57°
2026-05-01 08:37 37.20191 -101.56759 33190 ft 519 kts 57°
2026-05-01 08:37 37.23825 -101.48923 33196 ft 520 kts 57°
2026-05-01 08:38 37.27434 -101.41119 33181 ft 521 kts 57°
2026-05-01 08:38 37.31067 -101.33248 33190 ft 521 kts 57°
2026-05-01 08:39 37.34694 -101.25364 33198 ft 521 kts 57°
2026-05-01 08:39 37.38318 -101.17473 33194 ft 521 kts 57°
2026-05-01 08:40 37.43746 -101.05614 33247 ft 522 kts 57°
2026-05-01 08:40 37.47376 -100.97667 33175 ft 525 kts 57°
2026-05-01 08:41 37.51008 -100.89680 33174 ft 526 kts 58°
2026-05-01 08:41 37.54637 -100.81668 33178 ft 527 kts 58°
2026-05-01 08:42 37.58275 -100.73637 33183 ft 528 kts 58°
2026-05-01 08:42 37.61907 -100.65595 33198 ft 528 kts 58°
2026-05-01 08:43 37.65541 -100.57539 33194 ft 528 kts 58°
2026-05-01 08:43 37.69173 -100.49473 33208 ft 528 kts 58°
2026-05-01 08:44 37.72787 -100.41398 33212 ft 528 kts 58°
2026-05-01 08:44 37.76406 -100.33292 33200 ft 531 kts 58°
2026-05-01 08:45 37.80036 -100.25158 33197 ft 532 kts 58°
2026-05-01 08:45 37.83672 -100.17005 33206 ft 533 kts 58°
2026-05-01 08:46 37.87283 -100.08885 33199 ft 533 kts 58°
2026-05-01 08:46 37.90915 -100.00683 33218 ft 536 kts 58°
2026-05-01 08:47 37.92736 -99.96560 33431 ft 537 kts 58°
2026-05-01 08:47 37.94554 -99.92429 33667 ft 537 kts 58°
2026-05-01 08:47 37.96370 -99.88296 33904 ft 538 kts 59°
2026-05-01 08:47 37.98191 -99.84153 34160 ft 538 kts 59°
2026-05-01 08:48 38.00015 -99.80011 34356 ft 538 kts 58°
2026-05-01 08:48 38.01840 -99.75859 34540 ft 539 kts 58°
2026-05-01 08:48 38.03661 -99.71711 34737 ft 539 kts 58°
2026-05-01 08:48 38.05482 -99.67546 34939 ft 539 kts 58°
2026-05-01 08:49 38.07298 -99.63388 35136 ft 539 kts 58°
2026-05-01 08:49 38.09118 -99.59222 35206 ft 540 kts 58°
2026-05-01 08:49 38.12751 -99.50887 35217 ft 539 kts 58°
2026-05-01 08:50 38.16383 -99.42548 35217 ft 539 kts 58°
2026-05-01 08:50 38.20004 -99.34199 35202 ft 540 kts 58°
2026-05-01 08:51 38.23620 -99.25831 35197 ft 540 kts 58°
2026-05-01 08:51 38.27227 -99.17462 35197 ft 540 kts 58°
2026-05-01 08:52 38.30835 -99.09075 35242 ft 540 kts 58°
2026-05-01 08:52 38.34448 -99.00653 35217 ft 542 kts 58°
2026-05-01 08:53 38.38063 -98.92200 35202 ft 544 kts 58°
2026-05-01 08:53 38.41680 -98.83722 35208 ft 544 kts 58°
2026-05-01 08:54 38.45293 -98.75231 35212 ft 545 kts 58°
2026-05-01 08:54 38.48907 -98.66723 35223 ft 546 kts 58°
2026-05-01 08:55 38.52520 -98.58194 35212 ft 546 kts 58°
2026-05-01 08:55 38.56108 -98.49705 35205 ft 547 kts 58°
2026-05-01 08:56 38.59725 -98.41153 35222 ft 547 kts 58°
2026-05-01 08:56 38.63325 -98.32585 35200 ft 547 kts 58°
2026-05-01 08:57 38.66909 -98.23996 35193 ft 548 kts 58°
2026-05-01 08:57 38.70497 -98.15379 35201 ft 549 kts 58°
2026-05-01 08:58 38.74095 -98.06742 35202 ft 550 kts 58°
2026-05-01 08:58 38.77695 -97.98099 35209 ft 550 kts 58°
2026-05-01 08:59 38.81285 -97.89426 35212 ft 551 kts 59°
2026-05-01 08:59 38.84862 -97.80740 35214 ft 551 kts 59°
2026-05-01 09:00 38.88447 -97.72041 35239 ft 551 kts 58°
2026-05-01 09:00 38.92004 -97.63308 35225 ft 553 kts 62°
2026-05-01 09:01 38.94683 -97.54031 35234 ft 556 kts 69°
2026-05-01 09:01 38.97166 -97.44616 35219 ft 556 kts 69°
2026-05-01 09:02 38.99646 -97.35199 35215 ft 557 kts 69°
2026-05-01 09:02 39.01713 -97.27364 35214 ft 557 kts 69°
2026-05-01 09:03 39.04204 -97.17937 35210 ft 557 kts 69°
2026-05-01 09:03 39.06668 -97.08482 35205 ft 557 kts 69°
2026-05-01 09:04 39.09121 -96.99021 35205 ft 557 kts 69°
2026-05-01 09:04 39.11576 -96.89563 35202 ft 557 kts 69°
2026-05-01 09:05 39.14030 -96.80090 35194 ft 557 kts 69°
2026-05-01 09:05 39.16478 -96.70609 35210 ft 558 kts 69°
2026-05-01 09:06 39.18903 -96.61124 35185 ft 557 kts 69°
2026-05-01 09:06 39.21326 -96.51632 35204 ft 557 kts 69°
2026-05-01 09:07 39.23744 -96.42131 35203 ft 558 kts 69°
2026-05-01 09:07 39.26156 -96.32618 35207 ft 558 kts 69°
2026-05-01 09:08 39.28564 -96.23087 35212 ft 559 kts 69°
2026-05-01 09:08 39.30963 -96.13553 35213 ft 559 kts 69°
2026-05-01 09:09 39.33360 -96.04005 35222 ft 559 kts 69°
2026-05-01 09:09 39.35726 -95.94503 35217 ft 560 kts 69°
2026-05-01 09:10 39.38100 -95.84925 35207 ft 560 kts 69°
2026-05-01 09:10 39.40482 -95.75340 35205 ft 560 kts 69°
2026-05-01 09:11 39.42854 -95.65734 35209 ft 561 kts 69°
2026-05-01 09:11 39.45215 -95.56082 35220 ft 562 kts 69°
2026-05-01 09:12 39.47561 -95.46465 35181 ft 560 kts 69°
2026-05-01 09:12 39.49912 -95.36847 35185 ft 561 kts 69°
2026-05-01 09:13 39.52256 -95.27205 35191 ft 562 kts 69°
2026-05-01 09:13 39.54584 -95.17536 35188 ft 563 kts 69°
2026-05-01 09:14 39.56906 -95.07846 35189 ft 563 kts 69°
2026-05-01 09:14 39.59229 -94.98147 35190 ft 563 kts 69°
2026-05-01 09:15 39.61542 -94.88516 35201 ft 564 kts 69°
2026-05-01 09:15 39.63870 -94.78801 35196 ft 564 kts 69°
2026-05-01 09:16 39.66171 -94.69074 35195 ft 564 kts 70°
2026-05-01 09:17 39.69604 -94.54452 35199 ft 565 kts 69°
2026-05-01 09:17 39.73040 -94.39817 35191 ft 565 kts 69°
2026-05-01 09:18 39.76437 -94.25187 35184 ft 564 kts 70°
2026-05-01 09:19 39.79821 -94.10543 35185 ft 565 kts 69°
2026-05-01 09:20 39.83197 -93.95842 35188 ft 565 kts 70°
2026-05-01 09:21 39.87669 -93.76213 35208 ft 566 kts 70°
2026-05-01 09:21 39.90989 -93.61524 35199 ft 566 kts 70°
2026-05-01 09:22 39.95412 -93.41757 35194 ft 566 kts 70°
2026-05-01 09:23 39.98705 -93.26971 35223 ft 566 kts 70°
2026-05-01 09:24 40.01977 -93.12191 35211 ft 564 kts 70°
2026-05-01 09:25 40.06250 -92.92653 35174 ft 559 kts 70°
2026-05-01 09:26 40.09445 -92.78000 35161 ft 559 kts 70°
2026-05-01 09:26 40.12615 -92.63335 35147 ft 560 kts 70°
2026-05-01 09:27 40.15751 -92.48599 35138 ft 562 kts 71°
2026-05-01 09:28 40.17803 -92.38725 35144 ft 563 kts 71°
2026-05-01 09:28 40.19848 -92.28845 35170 ft 563 kts 71°
2026-05-01 09:29 40.22918 -92.14016 35178 ft 562 kts 71°
2026-05-01 09:30 40.25937 -91.99327 35148 ft 552 kts 71°
2026-05-01 09:30 40.28909 -91.84782 35168 ft 551 kts 71°
2026-05-01 09:31 40.30877 -91.75093 35160 ft 550 kts 72°
2026-05-01 09:32 40.33808 -91.60570 35151 ft 549 kts 72°
2026-05-01 09:32 40.36702 -91.46103 35156 ft 549 kts 72°
2026-05-01 09:33 40.38633 -91.36420 35152 ft 548 kts 72°
2026-05-01 09:34 40.41506 -91.21893 35145 ft 548 kts 72°
2026-05-01 09:34 40.44369 -91.07369 35133 ft 549 kts 72°
2026-05-01 09:35 40.47210 -90.92798 35176 ft 550 kts 72°
2026-05-01 09:36 40.49080 -90.83132 35131 ft 542 kts 72°
2026-05-01 09:36 40.50931 -90.73538 35144 ft 541 kts 72°
2026-05-01 09:37 40.52780 -90.63940 35136 ft 542 kts 72°
2026-05-01 09:37 40.55537 -90.49521 35129 ft 543 kts 72°
2026-05-01 09:38 40.58266 -90.35075 35137 ft 543 kts 72°
2026-05-01 09:39 40.60989 -90.20617 35112 ft 543 kts 72°
2026-05-01 09:39 40.62788 -90.11043 35089 ft 542 kts 72°
2026-05-01 09:40 40.65470 -89.96569 35080 ft 543 kts 73°
2026-05-01 09:41 40.67251 -89.86914 35091 ft 543 kts 73°
2026-05-01 09:41 40.69917 -89.72424 35082 ft 543 kts 73°
2026-05-01 09:42 40.71685 -89.62750 35091 ft 543 kts 73°
2026-05-01 09:43 40.75180 -89.43384 35080 ft 543 kts 73°
2026-05-01 09:43 40.76919 -89.33696 35082 ft 543 kts 73°
2026-05-01 09:44 40.79525 -89.19153 35076 ft 543 kts 73°
2026-05-01 09:45 40.81244 -89.09449 35071 ft 543 kts 74°
2026-05-01 09:45 40.83789 -88.94955 35064 ft 542 kts 74°
2026-05-01 09:46 40.85497 -88.85183 35075 ft 542 kts 74°
2026-05-01 09:46 40.87175 -88.75544 35076 ft 542 kts 74°
2026-05-01 09:47 40.88862 -88.65842 35079 ft 542 kts 74°
2026-05-01 09:47 40.90533 -88.56144 35105 ft 541 kts 74°
2026-05-01 09:48 40.92176 -88.46482 35074 ft 537 kts 75°
2026-05-01 09:48 40.93810 -88.36848 35068 ft 537 kts 75°
2026-05-01 09:49 40.95444 -88.27212 35064 ft 537 kts 75°
2026-05-01 09:49 40.97068 -88.17570 35059 ft 537 kts 75°
2026-05-01 09:50 40.98690 -88.07926 35073 ft 537 kts 75°
2026-05-01 09:50 41.00307 -87.98280 35073 ft 537 kts 75°
2026-05-01 09:51 41.01858 -87.88602 35077 ft 538 kts 76°
2026-05-01 09:51 41.03363 -87.78895 35079 ft 538 kts 76°
2026-05-01 09:52 41.04615 -87.70830 35083 ft 538 kts 76°
2026-05-01 09:52 41.06134 -87.61119 35066 ft 539 kts 76°
2026-05-01 09:53 41.07651 -87.51394 35058 ft 539 kts 76°
2026-05-01 09:53 41.09159 -87.41650 35051 ft 540 kts 76°
2026-05-01 09:54 41.10656 -87.31902 35048 ft 538 kts 76°
2026-05-01 09:54 41.12128 -87.22238 35012 ft 534 kts 76°
2026-05-01 09:55 41.13602 -87.12584 35021 ft 534 kts 76°
2026-05-01 09:55 41.15065 -87.02911 35028 ft 535 kts 77°
2026-05-01 09:56 41.16507 -86.93222 35023 ft 535 kts 77°
2026-05-01 09:56 41.17941 -86.83592 35023 ft 536 kts 77°
2026-05-01 09:57 41.19381 -86.73885 35024 ft 536 kts 77°
2026-05-01 09:57 41.20816 -86.64177 35025 ft 536 kts 77°
2026-05-01 09:58 41.22239 -86.54459 35025 ft 536 kts 77°
2026-05-01 09:58 41.23658 -86.44721 35031 ft 537 kts 77°
2026-05-01 09:59 41.25069 -86.34985 35035 ft 537 kts 77°
2026-05-01 09:59 41.26465 -86.25236 35033 ft 537 kts 77°
2026-05-01 10:00 41.27861 -86.15477 35031 ft 537 kts 77°
2026-05-01 10:00 41.29248 -86.05748 35021 ft 534 kts 77°
2026-05-01 10:01 41.30613 -85.96050 35031 ft 533 kts 78°
2026-05-01 10:01 41.31970 -85.86362 35041 ft 533 kts 78°
2026-05-01 10:02 41.33322 -85.76674 35041 ft 533 kts 78°
2026-05-01 10:02 41.34656 -85.67035 35033 ft 533 kts 78°
2026-05-01 10:03 41.35986 -85.57336 35035 ft 533 kts 78°
2026-05-01 10:03 41.37310 -85.47628 35030 ft 533 kts 78°
2026-05-01 10:04 41.38625 -85.37917 35019 ft 533 kts 78°
2026-05-01 10:04 41.39938 -85.28194 35014 ft 534 kts 78°
2026-05-01 10:05 41.41242 -85.18465 35011 ft 534 kts 78°
2026-05-01 10:05 41.42536 -85.08715 35014 ft 535 kts 78°
2026-05-01 10:06 41.43824 -84.98955 35018 ft 535 kts 78°
2026-05-01 10:06 41.45107 -84.89187 35050 ft 535 kts 78°
2026-05-01 10:07 41.46379 -84.79449 35010 ft 532 kts 78°
2026-05-01 10:07 41.47635 -84.69731 35021 ft 532 kts 78°
2026-05-01 10:08 41.49502 -84.55143 35017 ft 532 kts 79°
2026-05-01 10:09 41.50733 -84.45477 35019 ft 532 kts 79°
2026-05-01 10:09 41.51969 -84.35750 35030 ft 532 kts 79°
2026-05-01 10:10 41.53194 -84.26010 35032 ft 532 kts 79°
2026-05-01 10:10 41.55013 -84.11391 35035 ft 532 kts 79°
2026-05-01 10:11 41.56211 -84.01638 35036 ft 532 kts 79°
2026-05-01 10:11 41.57400 -83.91875 35028 ft 533 kts 79°
2026-05-01 10:12 41.58584 -83.82110 35030 ft 533 kts 79°
2026-05-01 10:13 41.60344 -83.67463 35056 ft 533 kts 79°
2026-05-01 10:13 41.61521 -83.57694 35043 ft 532 kts 78°
2026-05-01 10:14 41.63675 -83.43183 35039 ft 530 kts 76°
2026-05-01 10:14 41.65176 -83.33546 35033 ft 529 kts 77°
2026-05-01 10:15 41.66614 -83.23897 35031 ft 529 kts 77°
2026-05-01 10:15 41.68009 -83.14227 35022 ft 529 kts 77°
2026-05-01 10:16 41.69389 -83.04564 35022 ft 529 kts 77°
2026-05-01 10:17 41.71463 -82.90050 35019 ft 529 kts 77°
2026-05-01 10:17 41.73527 -82.75596 35027 ft 530 kts 77°
2026-05-01 10:18 41.75569 -82.61063 35056 ft 529 kts 78°
2026-05-01 10:19 41.76924 -82.51383 35053 ft 528 kts 78°
2026-05-01 10:19 41.78270 -82.41714 35046 ft 527 kts 78°
2026-05-01 10:20 41.80266 -82.27231 35038 ft 527 kts 78°
2026-05-01 10:20 41.81578 -82.17572 35039 ft 527 kts 78°
2026-05-01 10:21 41.83537 -82.03083 35040 ft 527 kts 78°
2026-05-01 10:22 41.85483 -81.88583 35039 ft 527 kts 78°
2026-05-01 10:23 41.87398 -81.74131 35030 ft 527 kts 79°
2026-05-01 10:23 41.89298 -81.59620 35063 ft 527 kts 79°
2026-05-01 10:24 41.91814 -81.40330 35023 ft 524 kts 79°
2026-05-01 10:25 41.94293 -81.21028 35025 ft 525 kts 79°
2026-05-01 10:26 41.95525 -81.11355 35028 ft 526 kts 79°
2026-05-01 10:27 41.97960 -80.91977 35022 ft 526 kts 79°
2026-05-01 10:28 41.99756 -80.77422 35026 ft 526 kts 79°
2026-05-01 10:28 42.01543 -80.62904 35019 ft 527 kts 79°
2026-05-01 10:29 42.03303 -80.48319 35042 ft 526 kts 79°
2026-05-01 10:30 42.05608 -80.28916 35037 ft 525 kts 79°
2026-05-01 10:31 42.07901 -80.09533 35026 ft 524 kts 79°
2026-05-01 10:32 42.09581 -79.95013 35040 ft 523 kts 79°
2026-05-01 10:33 42.11808 -79.75674 35037 ft 522 kts 79°
2026-05-01 10:34 42.13440 -79.61242 35042 ft 522 kts 80°
2026-05-01 10:34 42.14522 -79.51578 35046 ft 522 kts 80°
2026-05-01 10:35 42.16125 -79.37090 35011 ft 521 kts 80°
2026-05-01 10:35 42.17189 -79.27434 35006 ft 520 kts 80°
2026-05-01 10:36 42.18767 -79.12969 35057 ft 520 kts 80°
2026-05-01 10:37 42.19897 -79.03352 35042 ft 519 kts 78°
2026-05-01 10:37 42.21812 -78.89000 35061 ft 518 kts 78°
2026-05-01 10:38 42.23059 -78.79431 35062 ft 517 kts 79°
2026-05-01 10:38 42.24255 -78.69864 35033 ft 517 kts 79°
2026-05-01 10:39 42.25435 -78.60295 35013 ft 517 kts 79°
2026-05-01 10:39 42.26619 -78.50718 34989 ft 517 kts 79°
2026-05-01 10:40 42.27799 -78.41152 34983 ft 517 kts 79°
2026-05-01 10:40 42.28969 -78.31659 34991 ft 517 kts 79°
2026-05-01 10:41 42.30153 -78.21998 35008 ft 517 kts 79°
2026-05-01 10:42 42.31867 -78.07660 35027 ft 518 kts 79°
2026-05-01 10:42 42.33012 -77.98056 35039 ft 518 kts 79°
2026-05-01 10:43 42.34158 -77.88454 35044 ft 517 kts 80°
2026-05-01 10:43 42.35284 -77.78853 35044 ft 517 kts 80°
2026-05-01 10:44 42.36396 -77.69268 35071 ft 515 kts 80°
2026-05-01 10:44 42.37499 -77.59725 35057 ft 513 kts 80°
2026-05-01 10:45 42.38592 -77.50205 35052 ft 511 kts 80°
2026-05-01 10:45 42.39676 -77.40702 35054 ft 510 kts 81°
2026-05-01 10:46 42.40567 -77.32815 35046 ft 510 kts 81°
2026-05-01 10:46 42.41634 -77.23331 35034 ft 510 kts 81°
2026-05-01 10:47 42.42696 -77.13862 35015 ft 509 kts 81°
2026-05-01 10:47 42.43748 -77.04386 35016 ft 509 kts 81°
2026-05-01 10:48 42.44785 -76.94913 35016 ft 508 kts 81°
2026-05-01 10:48 42.45817 -76.85449 35014 ft 509 kts 81°
2026-05-01 10:49 42.46830 -76.76022 35030 ft 509 kts 82°
2026-05-01 10:49 42.47847 -76.66552 35022 ft 508 kts 82°
2026-05-01 10:50 42.48862 -76.57083 35014 ft 507 kts 82°
2026-05-01 10:50 42.49859 -76.47626 35000 ft 507 kts 82°
2026-05-01 10:51 42.50848 -76.38159 34997 ft 508 kts 82°
2026-05-01 10:51 42.51833 -76.28683 35000 ft 508 kts 82°
2026-05-01 10:52 42.52812 -76.19193 35003 ft 508 kts 82°
2026-05-01 10:52 42.53784 -76.09705 34991 ft 508 kts 82°
2026-05-01 10:53 42.54742 -76.00203 34999 ft 509 kts 83°
2026-05-01 10:53 42.55695 -75.90695 35004 ft 509 kts 83°
2026-05-01 10:54 42.56638 -75.81194 35027 ft 508 kts 83°
2026-05-01 10:54 42.57570 -75.71711 35008 ft 507 kts 83°
2026-05-01 10:55 42.58498 -75.62232 35009 ft 506 kts 83°
2026-05-01 10:55 42.59423 -75.52759 35009 ft 506 kts 83°
2026-05-01 10:56 42.60335 -75.43291 35009 ft 506 kts 83°
2026-05-01 10:56 42.61236 -75.33816 35001 ft 506 kts 83°
2026-05-01 10:57 42.62135 -75.24394 35008 ft 507 kts 83°
2026-05-01 10:57 42.63026 -75.14905 35012 ft 507 kts 84°
2026-05-01 10:58 42.63901 -75.05404 34993 ft 507 kts 84°
2026-05-01 10:58 42.64773 -74.95906 35023 ft 507 kts 84°
2026-05-01 10:59 42.65649 -74.86351 35021 ft 506 kts 84°
2026-05-01 10:59 42.66508 -74.76860 35014 ft 506 kts 84°
2026-05-01 11:00 42.67346 -74.67380 35013 ft 505 kts 84°
2026-05-01 11:00 42.68183 -74.57902 35007 ft 505 kts 84°
2026-05-01 11:01 42.69017 -74.48478 35002 ft 505 kts 84°
2026-05-01 11:01 42.69853 -74.38939 35001 ft 505 kts 84°
2026-05-01 11:02 42.70669 -74.29457 34986 ft 505 kts 85°
2026-05-01 11:02 42.71472 -74.19976 34985 ft 504 kts 85°
2026-05-01 11:03 42.72269 -74.10571 35005 ft 504 kts 85°
2026-05-01 11:03 42.73071 -74.01119 34992 ft 503 kts 85°
2026-05-01 11:04 42.73858 -73.91670 34988 ft 502 kts 85°
2026-05-01 11:04 42.74613 -73.82233 34993 ft 501 kts 88°
2026-05-01 11:05 42.74642 -73.72795 34992 ft 498 kts 93°
2026-05-01 11:05 42.74575 -73.63369 34973 ft 498 kts 93°
2026-05-01 11:06 42.74516 -73.53935 34963 ft 499 kts 93°
2026-05-01 11:06 42.74435 -73.44485 34942 ft 500 kts 93°
2026-05-01 11:07 42.74295 -73.30291 34655 ft 500 kts 93°
2026-05-01 11:07 42.74251 -73.25571 34397 ft 499 kts 93°
2026-05-01 11:07 42.74200 -73.20860 34159 ft 498 kts 94°
2026-05-01 11:08 42.74145 -73.16187 33199 ft 505 kts 94°
2026-05-01 11:08 42.74019 -73.11397 32362 ft 504 kts 99°
2026-05-01 11:08 42.73009 -73.02199 31118 ft 483 kts 102°
2026-05-01 11:09 42.72495 -72.97721 30412 ft 477 kts 102°
2026-05-01 11:09 42.71987 -72.93298 29614 ft 470 kts 102°
2026-05-01 11:09 42.71483 -72.88946 28850 ft 462 kts 102°
2026-05-01 11:10 42.70487 -72.80409 27479 ft 454 kts 102°
2026-05-01 11:10 42.69993 -72.76189 26935 ft 451 kts 102°
2026-05-01 11:10 42.69500 -72.71994 26384 ft 448 kts 102°
2026-05-01 11:10 42.69006 -72.67820 25846 ft 446 kts 102°
2026-05-01 11:11 42.68511 -72.63659 25299 ft 444 kts 102°
2026-05-01 11:11 42.68016 -72.59519 24744 ft 442 kts 102°
2026-05-01 11:11 42.67515 -72.55406 24224 ft 440 kts 102°
2026-05-01 11:11 42.67018 -72.51344 23687 ft 432 kts 102°
2026-05-01 11:12 42.66529 -72.47337 23117 ft 428 kts 102°
2026-05-01 11:12 42.66042 -72.43359 22612 ft 426 kts 102°
2026-05-01 11:12 42.65555 -72.39391 22105 ft 425 kts 102°
2026-05-01 11:12 42.65073 -72.35455 21759 ft 419 kts 102°
2026-05-01 11:13 42.64594 -72.31572 21656 ft 418 kts 102°
2026-05-01 11:13 42.64116 -72.27669 21080 ft 419 kts 102°
2026-05-01 11:13 42.63664 -72.23789 20573 ft 413 kts 101°
2026-05-01 11:13 42.63224 -72.19934 20074 ft 413 kts 101°
2026-05-01 11:14 42.62787 -72.16082 19543 ft 412 kts 101°
2026-05-01 11:14 42.62347 -72.12247 19039 ft 410 kts 101°
2026-05-01 11:14 42.61903 -72.08429 18618 ft 406 kts 102°
2026-05-01 11:14 42.61460 -72.04663 18119 ft 404 kts 102°
2026-05-01 11:15 42.61013 -72.00954 17599 ft 401 kts 102°
2026-05-01 11:15 42.60553 -71.97238 17107 ft 398 kts 102°
2026-05-01 11:15 42.60093 -71.93552 16615 ft 394 kts 102°
2026-05-01 11:15 42.59632 -71.89899 16125 ft 391 kts 102°
2026-05-01 11:16 42.59174 -71.86282 15651 ft 388 kts 102°
2026-05-01 11:16 42.58719 -71.82688 15175 ft 385 kts 102°
2026-05-01 11:16 42.58240 -71.79129 14703 ft 381 kts 103°
2026-05-01 11:16 42.57711 -71.75654 14237 ft 372 kts 104°
2026-05-01 11:17 42.57157 -71.72243 13790 ft 367 kts 105°
2026-05-01 11:17 42.56607 -71.68928 13356 ft 355 kts 105°
2026-05-01 11:17 42.56067 -71.65682 12866 ft 351 kts 105°
2026-05-01 11:17 42.55538 -71.62466 12429 ft 348 kts 104°
2026-05-01 11:18 42.55022 -71.59267 11995 ft 345 kts 105°
2026-05-01 11:18 42.54461 -71.56125 11669 ft 341 kts 107°
2026-05-01 11:18 42.53839 -71.53037 11338 ft 338 kts 108°
2026-05-01 11:18 42.53190 -71.49985 11005 ft 335 kts 108°
2026-05-01 11:19 42.52538 -71.46967 10690 ft 333 kts 108°
2026-05-01 11:19 42.51891 -71.43964 10374 ft 331 kts 108°
2026-05-01 11:19 42.51256 -71.40995 10163 ft 322 kts 108°
2026-05-01 11:19 42.50653 -71.38125 10035 ft 311 kts 108°
2026-05-01 11:20 42.50074 -71.35338 9859 ft 305 kts 108°
2026-05-01 11:20 42.49518 -71.32574 9570 ft 303 kts 107°
2026-05-01 11:20 42.48973 -71.29817 9295 ft 302 kts 107°
2026-05-01 11:20 42.48429 -71.27072 9016 ft 301 kts 107°
2026-05-01 11:21 42.47889 -71.24345 8747 ft 300 kts 107°
2026-05-01 11:21 42.47355 -71.21660 8474 ft 299 kts 107°
2026-05-01 11:21 42.46813 -71.18949 8203 ft 298 kts 107°
2026-05-01 11:21 42.46267 -71.16211 7926 ft 297 kts 105°
2026-05-01 11:22 42.45944 -71.13488 7650 ft 297 kts 97°
2026-05-01 11:22 42.45694 -71.10722 7368 ft 295 kts 97°
2026-05-01 11:22 42.45446 -71.07996 7201 ft 287 kts 97°
2026-05-01 11:22 42.45205 -71.05362 7075 ft 278 kts 98°
2026-05-01 11:23 42.44741 -71.02881 6942 ft 267 kts 115°
2026-05-01 11:23 42.43823 -71.00762 6795 ft 256 kts 131°
2026-05-01 11:23 42.42698 -70.98898 6644 ft 256 kts 131°
2026-05-01 11:23 42.41575 -70.97023 6464 ft 256 kts 131°
2026-05-01 11:24 42.40458 -70.95151 6287 ft 255 kts 131°
2026-05-01 11:24 42.39347 -70.93280 6107 ft 255 kts 131°
2026-05-01 11:24 42.37128 -70.89550 5685 ft 253 kts 131°
2026-05-01 11:25 42.36023 -70.87701 5465 ft 253 kts 131°
2026-05-01 11:25 42.33839 -70.84054 5064 ft 248 kts 133°
2026-05-01 11:25 42.32638 -70.82395 5001 ft 246 kts 138°
2026-05-01 11:26 42.31414 -70.80771 5001 ft 247 kts 138°
2026-05-01 11:26 42.29028 -70.77611 5003 ft 238 kts 138°
2026-05-01 11:26 42.27856 -70.76064 4765 ft 234 kts 139°
2026-05-01 11:27 42.26690 -70.74536 4387 ft 233 kts 139°
2026-05-01 11:27 42.25515 -70.73023 3987 ft 234 kts 139°
2026-05-01 11:27 42.24211 -70.71749 3587 ft 230 kts 162°
2026-05-01 11:27 42.22666 -70.71552 3181 ft 222 kts 197°
2026-05-01 11:28 42.21343 -70.72464 3007 ft 214 kts 223°
2026-05-01 11:28 42.20203 -70.73736 2994 ft 215 kts 232°
2026-05-01 11:28 42.19527 -70.75444 2997 ft 205 kts 263°
2026-05-01 11:29 42.20277 -70.78898 3002 ft 198 kts 314°
2026-05-01 11:29 42.21256 -70.80202 3001 ft 198 kts 315°
2026-05-01 11:29 42.23141 -70.82701 3019 ft 180 kts 315°
2026-05-01 11:30 42.24026 -70.83878 3006 ft 177 kts 315°
2026-05-01 11:30 42.24902 -70.85045 2931 ft 174 kts 315°
2026-05-01 11:30 42.25731 -70.86150 2757 ft 163 kts 315°
2026-05-01 11:30 42.26520 -70.87202 2554 ft 157 kts 316°
2026-05-01 11:31 42.27288 -70.88228 2344 ft 154 kts 317°
2026-05-01 11:31 42.28035 -70.89224 2139 ft 149 kts 318°
2026-05-01 11:31 42.28765 -70.90200 1935 ft 146 kts 319°
2026-05-01 11:31 42.29485 -70.91161 1737 ft 145 kts 318°
2026-05-01 11:32 42.30182 -70.92092 1562 ft 138 kts 318°
2026-05-01 11:32 42.30849 -70.92983 1355 ft 136 kts 318°
2026-05-01 11:32 42.31521 -70.93881 1159 ft 136 kts 317°
2026-05-01 11:32 42.32190 -70.94775 964 ft 135 kts 317°
2026-05-01 11:33 42.32863 -70.95674 781 ft 136 kts 315°
2026-05-01 11:33 42.33532 -70.96569 602 ft 135 kts 315°
2026-05-01 11:33 42.34195 -70.97458 423 ft 134 kts 314°
2026-05-01 11:33 42.34855 -70.98341 260 ft 133 kts 313°
2026-05-01 11:34 42.35509 -70.99220 95 ft 133 kts 313°
2026-05-01 11:34 42.36139 -71.00070 24 ft 115 kts 314°
2026-05-01 11:34 42.36602 -71.00689 27 ft 69 kts 315°
2026-05-01 11:34 42.36848 -71.01020 29 ft 26 kts 315°
2026-05-01 11:35 42.36930 -71.01141 30 ft 9 kts 295°
2026-05-01 11:35 42.36928 -71.01227 26 ft 4 kts 257°
2026-05-01 11:35 42.36926 -71.01235 31 ft 0 kts 256°
2026-05-01 11:36 42.36923 -71.01251 27 ft 5 kts 255°
2026-05-01 11:36 42.36923 -71.01317 26 ft 8 kts 293°
2026-05-01 11:37 42.36981 -71.01404 27 ft 16 kts 315°
2026-05-01 11:37 42.37044 -71.01504 30 ft 12 kts 280°
2026-05-01 11:37 42.36984 -71.01534 26 ft 12 kts 144°
2026-05-01 11:37 42.36944 -71.01476 27 ft 13 kts 134°
2026-05-01 11:38 42.36872 -71.01380 26 ft 16 kts 135°
2026-05-01 11:38 42.36792 -71.01272 26 ft 17 kts 137°
2026-05-01 11:38 42.36702 -71.01249 28 ft 14 kts 193°
2026-05-01 11:38 42.36603 -71.01285 26 ft 16 kts 197°
2026-05-01 11:39 42.36540 -71.01320 27 ft 7 kts 205°
2026-05-01 11:39 42.36489 -71.01353 27 ft 9 kts 206°
2026-05-01 11:39 42.36465 -71.01396 28 ft 5 kts 288°
2026-05-01 11:39 42.36485 -71.01421 29 ft 4 kts 324°
2026-05-01 11:40 42.36498 -71.01434 29 ft 2 kts 324°
2026-05-01 11:40 42.36504 -71.01440 28 ft 2 kts 324°
2026-05-01 11:40 42.36506 -71.01441 28 ft 0 kts 324°